This demonstration page uses our WeatherBlox Daily Observations layout. Learn more.

Left ArrowRight Arrow

Hourly Observations for February 19, 2022

Temp ( °F °C ) Dew Point ( °F °C ) Humidity (%) Winds ( mph kmh ) Pressure ( in mb ) Visibility ( mi km ) Precip ( " mm )
12:15 am 00:15 Clear 26 -3.6 20 -6.5 81 81 NNE 6 9 30.44 1031 10 16 0.00 0.00
12:35 am 00:35 Clear 24 -4.6 18 -7.7 79 79 NNE 8 13 30.46 1032 10 16 0.00 0.00
12:55 am 00:55 Clear 25 -4 18 -7.9 75 75 NNE 12 19 30.45 1031 10 16 0.00 0.00
1:15 am 01:15 Clear 24 -4.3 15 -9.2 69 69 NNE 7 11 30.47 1032 10 16 0.00 0.00
1:35 am 01:35 Clear 22 -5.5 14 -10 71 71 NNE 5 7 30.48 1032 10 16 0.00 0.00
1:55 am 01:55 Clear 20 -6.4 13 -10.5 73 73 NNE 7 11 30.50 1033 10 16 0.00 0.00
2:15 am 02:15 Partly Cloudy 21 -6.2 13 -10.4 72 72 NNE 5 7 30.51 1033 10 16 0.00 0.00
2:35 am 02:35 Mostly Cloudy 20 -6.5 13 -10.5 74 74 Calm 30.50 1033 10 16 0.00 0.00
2:55 am 02:55 Cloudy 21 -6 14 -10.1 73 73 Calm 30.50 1033 10 16 0.00 0.00
3:15 am 03:15 Cloudy 23 -5.2 15 -9.5 72 72 Calm 30.49 1032 10 16 0.00 0.00
3:35 am 03:35 Cloudy 24 -4.7 15 -9.6 69 69 Calm 30.48 1032 10 16 0.00 0.00
3:55 am 03:55 Cloudy 24 -4.6 15 -9.5 69 69 Calm 30.48 1032 10 16 0.00 0.00
4:15 am 04:15 Cloudy 24 -4.3 12 -10.9 60 60 Calm 30.48 1032 10 16 0.00 0.00
4:35 am 04:35 Cloudy 25 -4.1 6 -14.3 45 45 E 3 6 30.48 1032 10 16 0.00 0.00
4:55 am 04:55 Cloudy 24 -4.6 13 -10.6 63 63 Calm 30.49 1033 10 16 0.00 0.00
5:15 am 05:15 Cloudy 24 -4.5 12 -11.3 59 59 Calm 30.49 1033 10 16 0.00 0.00
5:35 am 05:35 Cloudy 23 -4.8 11 -11.4 60 60 Calm 30.50 1033 10 16 0.00 0.00
5:55 am 05:55 Mostly Cloudy 23 -5.1 12 -11.1 63 63 S 3 6 30.51 1033 10 16 0.00 0.00
6:15 am 06:15 Partly Cloudy 22 -5.8 12 -11.3 66 66 Calm 30.52 1034 10 16 0.00 0.00
6:35 am 06:35 Clear 20 -6.6 11 -11.6 68 68 S 3 6 30.52 1034 10 16 0.00 0.00
6:55 am 06:55 Partly Cloudy 21 -6.2 11 -11.4 67 67 SSW 5 7 30.53 1034 10 16 0.00 0.00
7:15 am 07:15 Partly Cloudy 17 -8.4 9 -12.7 71 71 Calm 30.55 1035 10 16 0.00 0.00
7:35 am 07:35 Sunny 16 -9.1 10 -12.4 77 77 SE 7 11 30.55 1034 10 16 0.00 0.00
7:55 am 07:55 Sunny 17 -8.5 11 -11.9 77 77 SSE 5 7 30.54 1034 10 16 0.00 0.00
8:15 am 08:15 Sunny 18 -7.8 11 -11.5 75 75 SSE 6 9 30.53 1034 10 16 0.00 0.00
8:35 am 08:35 Sunny 21 -6 11 -11.6 65 65 SSE 10 17 30.52 1033 10 16 0.00 0.00
8:55 am 08:55 Sunny 23 -5.1 9 -12.6 56 56 SSE 15 24 30.51 1033 10 16 0.00 0.00
9:15 am 09:15 Sunny 24 -4.5 8 -13.4 50 50 SSE 14 22 30.50 1033 10 16 0.00 0.00
9:35 am 09:35 Sunny 25 -3.7 8 -13.5 47 47 S 17 28 30.48 1032 10 16 0.00 0.00
9:55 am 09:55 Sunny 27 -3 8 -13.3 45 45 S 16 26 30.47 1032 10 16 0.00 0.00
10:15 am 10:15 Sunny 28 -2.1 8 -13.1 43 43 S 15 24 30.45 1031 10 16 0.00 0.00
10:35 am 10:35 Sunny 29 -1.5 9 -12.7 43 43 S 17 28 30.43 1030 10 16 0.00 0.00
10:55 am 10:55 Sunny 31 -0.5 10 -12.5 40 40 S 16 26 30.42 1030 10 16 0.00 0.00
11:15 am 11:15 Sunny 32 0.2 10 -12.2 39 39 S 15 24 30.39 1029 10 16 0.00 0.00
11:35 am 11:35 Sunny 33 0.6 10 -12 39 39 S 18 30 30.38 1029 10 16 0.00 0.00
11:55 am 11:55 Sunny 33 0.8 11 -11.9 38 38 S 21 33 30.37 1028 10 16 0.00 0.00
12:15 pm 12:15 Sunny 35 1.5 12 -11.2 39 39 S 18 30 30.35 1028 10 16 0.00 0.00
12:35 pm 12:35 Sunny 36 2.1 11 -11.4 36 36 S 21 33 30.32 1027 10 16 0.00 0.00
12:55 pm 12:55 Sunny 37 3 12 -11 35 35 S 21 33 30.29 1026 10 16 0.00 0.00
1:15 pm 13:15 Sunny 39 3.7 13 -10.8 34 34 S 18 30 30.25 1024 10 16 0.00 0.00
1:35 pm 13:35 Sunny 40 4.7 13 -10.6 32 32 S 20 31 30.22 1023 10 16 0.00 0.00
1:55 pm 13:55 Sunny 41 5.1 13 -10.7 31 31 S 22 35 30.20 1023 10 16 0.00 0.00
2:15 pm 14:15 Sunny 42 5.7 13 -10.6 30 30 S 21 33 30.17 1022 10 16 0.00 0.00
2:35 pm 14:35 Sunny 43 6 12 -11 29 29 S 22 35 30.15 1021 10 16 0.00 0.00
2:55 pm 14:55 Sunny 44 6.4 12 -11.1 28 28 S 20 31 30.13 1020 10 16 0.00 0.00
3:15 pm 15:15 Sunny 45 7 12 -11.3 26 26 S 22 35 30.10 1019 10 16 0.00 0.00
3:35 pm 15:35 Sunny 46 7.5 12 -11.2 25 25 S 21 33 30.07 1018 10 16 0.00 0.00
3:55 pm 15:55 Sunny 46 7.6 13 -10.7 26 26 S 23 37 30.04 1017 10 16 0.00 0.00
4:15 pm 16:15 Sunny 47 8.2 14 -10.1 26 26 S 22 35 30.04 1017 10 16 0.00 0.00
4:35 pm 16:35 Sunny 47 8.2 14 -9.9 27 27 S 22 35 30.02 1017 10 16 0.00 0.00
4:55 pm 16:55 Sunny 47 8.3 14 -9.8 27 27 S 20 31 30.01 1016 10 16 0.00 0.00
5:15 pm 17:15 Sunny 47 8.6 15 -9.3 27 27 S 17 28 29.99 1015 10 16 0.00 0.00
5:35 pm 17:35 Sunny 47 8.5 16 -9 28 28 S 16 26 29.98 1015 10 16 0.00 0.00
5:55 pm 17:55 Sunny 46 7.8 16 -9 30 30 S 15 24 29.95 1014 10 16 0.00 0.00
6:15 pm 18:15 Sunny 45 7 16 -9 31 31 S 16 26 29.94 1014 10 16 0.00 0.00
6:35 pm 18:35 Clear 44 6.4 16 -9 33 33 SSE 12 19 29.95 1014 10 16 0.00 0.00
6:55 pm 18:55 Clear 42 5.7 16 -9.1 34 34 SSE 10 17 29.94 1014 10 16 0.00 0.00
7:15 pm 19:15 Clear 42 5.3 17 -8.6 36 36 SSE 12 19 29.94 1014 10 16 0.00 0.00
7:35 pm 19:35 Clear 42 5.5 17 -8.2 37 37 S 12 19 29.93 1014 10 16 0.00 0.00
7:55 pm 19:55 Clear 41 5.2 18 -8 38 38 S 12 19 29.94 1014 10 16 0.00 0.00
8:15 pm 20:15 Clear 41 4.8 19 -7.5 41 41 S 15 24 29.93 1014 10 16 0.00 0.00
8:35 pm 20:35 Clear 40 4.7 19 -7.1 42 42 S 14 22 29.91 1013 10 16 0.00 0.00
8:55 pm 20:55 Clear 40 4.6 19 -7 43 43 S 15 24 29.91 1013 10 16 0.00 0.00
9:15 pm 21:15 Clear 41 4.8 19 -7 42 42 S 20 31 29.89 1012 10 16 0.00 0.00
9:35 pm 21:35 Clear 40 4.5 20 -6.8 44 44 S 17 28 29.89 1012 10 16 0.00 0.00
9:55 pm 21:55 Clear 39 4 21 -6.2 48 48 S 18 30 29.90 1012 10 16 0.00 0.00
10:15 pm 22:15 Clear 39 4 22 -5.5 50 50 S 18 30 29.89 1012 10 16 0.00 0.00
10:35 pm 22:35 Clear 39 4 24 -4.5 54 54 S 17 28 29.88 1012 10 16 0.00 0.00
10:55 pm 22:55 Clear 39 4 25 -4 56 56 S 17 28 29.86 1011 10 16 0.00 0.00
11:15 pm 23:15 Clear 39 3.9 26 -3.5 59 59 SSW 17 28 29.85 1011 10 16 0.00 0.00
11:35 pm 23:35 Clear 39 3.7 27 -3 62 62 SSW 15 24 29.86 1011 10 16 0.00 0.00
11:55 pm 23:55 Clear 38 3.3 27 -3 64 64 SSW 16 26 29.85 1011 10 16 0.00 0.00

Powered by AerisWeather